Regional Weather Roundup
Issued by NWS Newport/Morehead, NC

Current Version | Previous Version | Graphics & Text | Print | Product List | Glossary On
Versions: 1 2 3 4 5 6 7 8 9 10 11 12 13 14 15 16 17 18 19 20 21 22 23 24 25 26 27 28 29 30 31 32 33 34 35 36 37 38 39 40 41 42 43 44 45 46 47 48 49 50
000 ASUS42 KMHX 240513 RWRMHX WEATHER ROUNDUP FOR EASTERN NORTH CAROLINA NATIONAL WEATHER SERVICE NEWPORT/MOREHEAD CITY NC 1200 AM EST SAT FEB 24 2018 NOTE: "FAIR" INDICATES FEW OR NO CLOUDS BELOW 12,000 FEET WITH NO SIGNIFICANT WEATHER AND/OR OBSTRUCTIONS TO VISIBILITY NCZ015>017-031-032-045>047-102-103-240600- NORTH COAST CITY SKY/WX TMP DP RH WIND PRES REMARKS EDENTON DRZL/FOG 61 60 97 S7 30.31F VSB 1/2 ELIZABETH CITY FOG 53 53 100 S6 30.30F VSB 1/4 KITTY HAWK FOG N/A N/A N/A CALM 30.30S VSB 1/2 MANTEO CLOUDY 54 54 99 SW6 30.32S $$ NCZ045>047-081-094-103-104-240600- CENTRAL COAST CITY SKY/WX TMP DP RH WIND PRES REMARKS FRISCO FAIR 56 55 97 E3 30.31F $$ NCZ095-097-098-100-101-240600- SOUTHERN COAST CITY SKY/WX TMP DP RH WIND PRES REMARKS BEAUFORT CLOUDY 64 61 90 S6 30.31F CEDAR ISLAND NOT AVBL JACKSONVILLE FAIR 62 62 100 CALM 30.30F PINEY ISLAND NOT AVBL WILMINGTON FAIR 64 62 93 S5 30.30F $$ NCZ011>013-027>030-043-044-078>080-089-090>093-098-240600- COASTAL PLAIN CITY SKY/WX TMP DP RH WIND PRES REMARKS AHOSKIE FAIR 54 54 100 S5 30.28F CLINTON FAIR 61 61 100 CALM 30.31F ELIZABETHTOWN NOT AVBL GOLDSBORO FAIR 63 62 95 S3 30.27F GREENVILLE MOCLDY 63 63 100 S9 30.30F HAVELOCK PTCLDY 62 61 96 CALM 30.32F VSB 1 KENANSVILLE FOG 61 61 100 CALM 30.31F VSB 1/2 KINSTON CLOUDY 64 63 96 S7 30.31F NEW BERN FOG 56 56 100 CALM 30.32F VSB 1/2 RICHLANDS FOG 61 61 100 CALM 30.31F VSB 1/2 ROCKY MOUNT FAIR 51 51 100 CALM 30.28F FOG WASHINGTON CLOUDY 62 61 97 S3 30.31F WHITEVILLE FAIR 62 61 97 CALM 30.31S $$ AMZ130-135-150-152-154-156-158-170-250-252-270-ANZ085-086-088-633-658-670-240600- MARINE OBSERVATIONS STATION/POSITION TIME TEMP WIND PRES WAVE SWELL AIR SEA DIR/SP/G HT/PER HT/PER (UTC) (F) (DEG/KT/KT) (MB) (FT/S) (FT/S) CHESAPEAKE LIGHT NOT AVBL 64 E VA BEACH 0450 48 50 190/ 8/ 10 1026.4 4/ 8 3/ 8 DUCK 0448 46 160/ 3/ 4 1026.0 2 E DUCK 0500 46 N/A 4/ 9 2/11 OREGON INLET 0442 48 54 130/ 2/ 2 1026.5 13E OREGON INLT 0448 49 N/A 4/ 8 5/ 8 HATTERAS CG 0448 59 61 130/ 3/ 4 1026.3 DIAMOND BUOY 0500 72 73 220/ 12/ 16 1026.5 CAPE LOOKOUT 0500 190/ 7/ 7 1026.7 BEAUFORT LAB 0448 61 61 190/ 4/ 5 1026.5 30 SE NEW RVR IN 0408 70 69 190/ 6/ 8 1026.9 30 SE NEW RVR IN 0500 69 N/A 4/ 9 2/11 27 SE WRIGHTSVLE 0408 69 70 200/ 8/ 12 1026.9 5 SE WRIGHTSVLE 0408 62 59 190/ 6/ 8 1026.7 225 S CAPE HAT 0450 71 73 170/ 8/ 12 1027.8 5/ 9 5/ 9 41 SE CHARLESTON 0500 69 68 140/ 8/ 10 1026.3 $$

USA.gov is the U.S. government's official web portal to all federal, state and local government web resources and services.